Regional Weather Roundup
Issued by NWS

Home | Current Version | Previous Version | Text Only | Print | Product List | Glossary Off
Versions: 1 2 3 4 5 6 7 8 9 10 11 12 13 14 15 16 17 18 19 20 21 22 23 24 25 26 27

000
ASUS45 KBOI 260310
RWRID

IDAHO REGIONAL WEATHER ROUNDUP
NATIONAL WEATHER SERVICE BOISE ID
900 PM MDT SUN JUN 25 2017

NOTE: "FAIR" INDICATES FEW OR NO CLOUDS BELOW 12000 FEET
WITH NO SIGNIFICANT WEATHER AND/OR OBSTRUCTIONS TO VISIBILITY

IDZ012-014-260400-
SOUTHWEST IDAHO


CITY           SKY/WX    TMP DP  RH WIND       PRES   REMARKS
BOISE          CLEAR     92  38  15 N5        29.96S
CALDWELL       CLEAR     86  56  35 NW5       29.93F
MOUNTAIN HOME  CLEAR     90  37  15 E5        29.96F
$$

IDZ016-017-260400-
SOUTHCENTRAL IDAHO


CITY           SKY/WX    TMP DP  RH WIND       PRES   REMARKS
BURLEY         CLEAR     79  40  24 E7        30.07S
JEROME         CLEAR     81  41  24 E7        30.07S
TWIN FALLS     CLEAR     76  52  43 E8        30.07S
$$

IDZ019>023-260400-
SOUTHEAST IDAHO


CITY           SKY/WX    TMP DP  RH WIND       PRES   REMARKS
IDAHO FALLS    CLEAR     80  43  26 E8        30.18S
POCATELLO      CLEAR     77  46  33 E7        30.14F
REXBURG        CLEAR     78  40  25 SE3       30.19S
$$

IDZ006-010-011-018-031-032-260400-
CENTRAL IDAHO MOUNTAINS


CITY           SKY/WX    TMP DP  RH WIND       PRES   REMARKS
MCCALL         CLEAR     80  35  19 NW5       30.13F
HAILEY         CLEAR     66  48  52 CALM      30.19S
STANLEY          N/A     74  40  29 CALM      30.25S
SALMON         CLEAR     73  45  35 SW5       30.06R
CHALLIS        CLEAR     78  38  23 NW8       30.13S
$$

IDZ002-004-006-007-026-260400-
NORTHERN IDAHO


CITY           SKY/WX    TMP DP  RH WIND       PRES   REMARKS
LEWISTON       CLEAR     94  43  17 N3        29.86F HX  90
LOWELL           N/A     73  60  63 CALM      29.88S
COEUR D`ALENE  CLEAR     86  53  32 NE6       29.95F
MULLAN PASS    CLEAR     72  36  26 SE5       30.24F
$$




USA.gov is the U.S. government's official web portal to all federal, state and local government web resources and services.